Regional Weather Roundup
Issued by NWS

Home | Current Version | Previous Version | Graphics & Text | Print | Product List | Glossary Off
Versions: 1 2 3 4 5 6 7 8 9 10 11 12 13 14 15 16 17 18 19 20 21 22 23 24 25 26 27 28 29 30 31 32 33 34 35 36 37 38 39 40 41 42 43 44 45 46 47 48 49 50

000
ASUS43 KMKX 241438
RWRWI

WISCONSIN REGIONAL WEATHER ROUNDUP
NATIONAL WEATHER SERVICE MILWAUKEE/SULLIVAN WI
1000 AM CDT SUN MAY 24 2015

NOTE: "FAIR" INDICATES FEW OR NO CLOUDS BELOW 12,000 FEET WITH NO
SIGNIFICANT WEATHER AND/OR OBSTRUCTIONS TO VISIBILITY.

WIZ001-002-006>008-014>016-023>028-241600-
NORTHWEST WISCONSIN

CITY           SKY/WX    TMP DP  RH WIND       PRES   REMARKS
SUPERIOR ARPT  PTSUNNY   64  47  54 CALM      30.10S
ASHLAND        PTSUNNY   63  49  60 CALM      30.12S
HAYWARD        CLOUDY    63  49  60 NE3       30.11S
SIREN          CLOUDY    60  51  72 CALM      30.09S
CUMBERLAND     CLOUDY    63  45  51 E5        30.09F
RICE LAKE      CLOUDY    64  47  53 E6        30.10F
CHETEK         CLOUDY    63  50  62 E5        30.09F
LADYSMITH      CLOUDY    65  47  52 E6        30.13S
EAU CLAIRE     CLOUDY    64  47  53 E3        30.08S
MENOMONIE      CLOUDY    64  48  57 E5        30.08F
NEW RICHMOND   CLOUDY    61  49  63 E6        30.07S
OSCEOLA        CLOUDY    62  52  69 SE5       30.09F
$$

WIZ003>005-009-010-017-018-241600-
NORTH CENTRAL WISCONSIN

CITY           SKY/WX    TMP DP  RH WIND       PRES   REMARKS
MANITOWISH WTR CLOUDY    65  46  50 S7        30.14R
ARBOR VITAE    CLOUDY    66  46  49 S5        30.14S
WOODRUFF       CLOUDY    66  46  49 S5        30.14S
RHINELANDER    CLOUDY    66  46  48 SE5       30.15S
EAGLE RIVER    PTSUNNY   68  42  39 CALM      30.15R
LAND O LAKES   PTSUNNY   68  43  40 S5        30.15S
PHILLIPS       CLOUDY    64  47  53 SE3       30.12F
TOMAHAWK       CLOUDY    65  49  56 CALM      30.15R
MEDFORD        CLOUDY    63  50  64 CALM      30.13S
MERRILL        CLOUDY    64  49  58 CALM      30.14S
$$

WIZ029-030-035-036-043>047-241600-
CENTRAL WISCONSIN

CITY           SKY/WX    TMP DP  RH WIND       PRES   REMARKS
WAUSAU         CLOUDY    64  50  60 SE3       30.12S
MOSINEE        SUNNY     63  52  67 CALM      30.14F
MARSHFIELD     CLOUDY    66  48  52 SE5       30.12S
STEVENS POINT  CLOUDY    64  47  54 SE5       30.13S
WAUPACA        CLOUDY    65  50  58 CALM      30.13F
WAUTOMA        CLOUDY    64  50  60 CALM      30.14S
WISC RAPIDS    CLOUDY    65  47  52 S5        30.13F
CAMP DOUGLAS   CLOUDY    63  55  77 S12G21    30.13R
$$

WIZ011>013-019>022-031-037>040-048>050-241600-
NORTHEAST WISCONSIN

CITY           SKY/WX    TMP DP  RH WIND       PRES   REMARKS
ANTIGO         PTSUNNY   65  48  54 S6        30.15S
SHAWANO        CLOUDY    65  49  55 SW3       30.14S
OCONTO         CLOUDY    65  49  56 CALM      30.13F
STURGEON BAY   CLOUDY    66  45  45 S6        30.17S
GREEN BAY      CLOUDY    65  48  54 S3        30.14F
MANITOWOC      PTSUNNY   56  46  69 E5        30.15F
APPLETON       PTSUNNY   64  48  55 VRB5      30.14F
CLINTONVILLE   CLOUDY    63  46  55 CALM      30.13F
OSHKOSH        CLOUDY    69  52  54 S7        30.13F
$$

WIZ032>034-041-042-053>061-241600-
SOUTHWEST WISCONSIN

CITY           SKY/WX    TMP DP  RH WIND       PRES   REMARKS
LA CROSSE      LGT RAIN  61  54  77 S10       30.11R
SPARTA         RAIN      62  50  66 S13G20    30.12R
VIROQUA        CLOUDY    58  53  84 SE7       30.13R
BOSCOBEL       LGT RAIN  61  55  81 VRB5      30.14R
PRAIRIE DU CHI LGT RAIN  59  55  86 E7        30.11F
PLATTEVILLE    CLOUDY    58  56  92 E6        30.14S
$$

WIZ056-057-062-063-064-067-068-241600-
SOUTH CENTRAL WISCONSIN

CITY           SKY/WX    TMP DP  RH WIND       PRES   REMARKS
REEDSBURG      DRIZZLE   57  55  90 CALM      30.14R
BARABOO/DELLS  RAIN      58  53  82 CALM      30.14S
LONE ROCK      LGT RAIN  59  55  87 E5        30.15R
MINERAL POINT  RAIN      59  55  88 SE7       30.15R
MADISON        LGT RAIN  63  53  70 S7        30.15R
MIDDLETON      CLOUDY    63  54  72 S3        30.16R
WATERTOWN      CLOUDY    63  52  67 CALM      30.14F
MONROE         DRIZZLE   61  55  82 S5        30.16R
JANESVILLE     PTSUNNY   64  52  63 S8        30.15S
$$

WIZ051-052-058>065-066-070>072-241600-
SOUTHEAST WISCONSIN

CITY           SKY/WX    TMP DP  RH WIND       PRES   REMARKS
MILWAUKEE      CLOUDY    65  50  58 S8        30.17S
WAUKESHA       NOT AVBL
MILWAUKEE/TIMM DRIZZLE   63  48  59 S7        30.18R
RACINE         CLOUDY    64  50  60 S3        30.19S
BURLINGTON     CLOUDY    62  51  66 S3        30.17S
KENOSHA        CLOUDY    66  53  63 SW7       30.18S
FOND DU LAC    CLOUDY    69  48  47 S7        30.14S
SHEBOYGAN      PTSUNNY   67  51  56 S3        30.15F
WEST BEND      CLOUDY    64  50  59 S7        30.16R
JUNEAU         DRIZZLE   64  51  63 S9        30.17R
$$

LSZ147-162-241600-
LAKE SUPERIOR

STATION/POSITION TIME  TEMP    WIND        PRES    WAVE
                       AIR SEA DIR/SP/G            HT/PER
                 (UTC) (F)     (DEG/KT/KT) (MB)    (FT/S)
W MID LAKE BUOY  1350   42 36  220/ 10/ 12   N/A     1
DEVILS ISLAND    1400   59     230/  5/  7   N/A
PORT WING        1300   57      CALM  /  1   N/A
SAXON HARBOR     1300   61     170/  1/  4   N/A
$$

LMZ867-665-643>646-241600-
LAKE MICHIGAN

STATION/POSITION TIME  TEMP    WIND        PRES    WAVE
                       AIR SEA DIR/SP/G            HT/PER
                 (UTC) (F)     (DEG/KT/KT) (MB)    (FT/S)
CHAMBERS ISLAND  1300   65     180/  2/  4   N/A
N MID LAKE BUOY  1350   42 36  180/  8/ 10   N/A     1
NORTHPORT PIER   1300   52     150/  2/  8   N/A
SISTER BAY       1302   71        CALM       N/A
KEWAUNEE LAKESHO 1400   49     160/  6/  9   N/A
SHEBOYGAN LAKESH 1400   53     170/ 11/ 12   N/A
PORT WASHINGTON  1300   51     160/  3/  4   N/A
ATWATER BUOY     1400   50 46  170/  4/  6   N/A
MILWAUKEE LAKESH 1400   54      CALM  /  1   N/A
S MID LAKE BUOY  1350   47     160/  8/  8   N/A
$$

TC  - TEMPERATURE IN CELSIUS
VSB - VISIBILITY IN STATUTE MILES
WCI - WIND CHILL INDEX
HX  - HEAT INDEX



USA.gov is the U.S. government's official web portal to all federal, state and local government web resources and services.